Regional Weather Roundup
Issued by NWS San Diego, CA

Home | Current Version | Previous Version | Text Only | Print | Product List | Glossary On
Versions: 1 2 3 4 5 6 7 8 9 10 11 12 13 14 15 16 17 18 19 20 21 22 23 24 25 26 27 28 29 30 31 32 33 34 35 36 37 38 39 40 41 42 43 44 45 46 47 48 49 50
000
ASUS46 KSGX 231504
RWRSGX

SAN DIEGO HOURLY WEATHER ROUNDUP
NATIONAL WEATHER SERVICE SAN DIEGO CA
800 AM PDT SUN APR 23 2017

NOTE: "FAIR" INDICATES FEW OR NO CLOUDS BELOW 12,000 FEET WITH NO
SIGNIFICANT WEATHER AND/OR OBSTRUCTIONS TO VISIBILITY.

CAZ042-043-060-061-PZZ750-775-231600-

GREATER SAN DIEGO AREA

CITY           SKY/WX    TMP DP  RH WIND       PRES   REMARKS
SAN DIEGO AP   PTSUNNY   64  57  78 S8        29.89R
NATIONAL CITY    N/A     63  60  90 CALM      29.88R
CHULA VISTA      N/A     62  60  93 CALM      29.80S
IMPERIAL BEACH MOSUNNY  N/A N/A N/A S6        29.89R
BROWN FIELD    MOSUNNY   61  58  90 CALM      29.88R FOG
MIRAMAR MCAS   PTSUNNY   65  58  78 S7        29.87R
MONTGOMERY FLD MOSUNNY   61  56  83 S6        29.88R HAZE

$$

NORTH SAN DIEGO COUNTY

CITY           SKY/WX    TMP DP  RH WIND       PRES   REMARKS
CAMP PENDLETON CLOUDY    57  51  80 CALM      29.87S
OCEANSIDE AP   PTSUNNY   60  56  86 CALM      29.86S
OCEANSIDE HBR    N/A     59  57  92 CALM      29.89S
VISTA            N/A     58  53  81 CALM      29.84R
CARLSBAD       PTSUNNY   63  59  87 S7        29.86R
DEL MAR          N/A     61  60  97 W1        29.89R
LA JOLLA SCRIP   N/A     61  60  96 SE3       29.86R
FALLBROOK        N/A     59  56  90 CALM      29.85S
ESCONDIDO        N/A     62  52  70 CALM      29.86S
SAN MARCOS       N/A     63  54  72 CALM      29.86R
POWAY            N/A     60  56  88 CALM      29.87F

$$

EAST SAN DIEGO COUNTY

CITY           SKY/WX    TMP DP  RH WIND       PRES   REMARKS
RAMONA         MOSUNNY   58  47  66 SE3       29.88F
SANTEE LAKES     N/A     58  55  90 CALM      29.86S
LA MESA          N/A     60  57  91 CALM      29.80R
JAMUL            N/A     58  54  86 CALM      29.86R
DESCANSO N       N/A     60  44  55 NE2       29.81R
MT. LAGUNA OBS   N/A     55  29  36 W7        29.64R
CAMPO            N/A     55  39  54 NE3       29.91R

$$

ORANGE COUNTY AND THE LOS ANGELES BASIN

CITY           SKY/WX    TMP DP  RH WIND       PRES   REMARKS
JOHN WAYNE AP  PTSUNNY   64  58  80 NW5       29.87R
LAGUNA BEACH     N/A     57  55  94 CALM      29.81
LAKE FOREST FR   N/A     61  42  49 CALM      29.74R
HUNTINGTON BCH   N/A     61  60  95 S3        29.90R
LOS ALAMITOS   PTSUNNY   63  60  90 SW8       29.87R
FULLERTON      SUNNY     65  58  78 SW5       29.87R
LONG BEACH     MOSUNNY   63  55  75 SW3       29.88R
L.A. AP        MOSUNNY   63  55  75 W5        29.88R
L.A. DOWNTOWN  SUNNY     65  54  67 CALM      29.87R

$$

THE INLAND EMPIRE

CITY           SKY/WX    TMP DP  RH WIND       PRES   REMARKS
CORONA         MOSUNNY   65  50  58 E3        29.87S
CHINO          MOSUNNY   64  54  69 CALM      29.89R
ONTARIO        MOSUNNY   65  50  58 CALM      29.87R
SAN BERNARDINO MOSUNNY   64  41  42 CALM      29.88S
RIVERSIDE AP   MOSUNNY   62  51  67 CALM      29.87S
MORENO VALLEY    N/A     66  49  54 SE3       28.02
MARCH ARB      PTSUNNY   61  41  46 CALM      29.88S
HORSETHIEF CYN   N/A     60  43  53 CALM      29.84S
PERRIS           N/A     58  47  64 CALM      29.88S
HEMET EAST       N/A     62  34  34 CALM      29.87S
FRENCH VALLEY  FAIR      59  43  55 CALM      29.89S
TEMECULA         N/A     57  47  68 CALM      29.94R

$$

SAN BERNARDINO AND RIVERSIDE COUNTY MOUNTAINS

CITY           SKY/WX    TMP DP  RH WIND       PRES   REMARKS
BIG BEAR AP    PTSUNNY   54  12  19 NW12G20   30.04F
ANGELUS OAKS     N/A     52  28  39 CALM      29.74S
PINE COVE        N/A     55  22  28 CALM      29.79R

$$

SOUTHERN DESERT INCLUDING THE COACHELLA VALLEY

CITY           SKY/WX    TMP DP  RH WIND       PRES   REMARKS
PALM SPRINGS   PTSUNNY   75  38  26 SW5       29.77R
PALM DESERT      N/A     70  48  45 CALM      29.63R
THERMAL        MOSUNNY   70  47  43 CALM      29.73R
BLYTHE         MOSUNNY   74  34  23 SE3       29.76R
IMPERIAL AP    MOSUNNY   76  41  28 W8        29.74R
EL CENTRO NAS  MOSUNNY   80  31  16 NW7       29.76R
YUMA AZ        MOSUNNY   73  37  27 S5        29.77R
MEXICALI       MOSUNNY   70  43  37 SE3       29.76R

$$

UPPER DESERT

CITY           SKY/WX    TMP DP  RH WIND       PRES   REMARKS
VICTORVILLE AP SUNNY     57  39  51 CALM      29.90R
HESPERIA         N/A     69  35  28 SW7       29.86S
PALMDALE       SUNNY     60  43  53 CALM      29.89R
LANCASTER      SUNNY     63  43  48 W17       29.87F
EDWARDS AFB    SUNNY     63  43  48 W9        29.86R
DAGGETT        MOSUNNY   63  42  46 W16       29.83R
29 PALMS N     CLOUDY    65  28  24 CALM      29.89S
NEEDLES        MOSUNNY   72  29  20 NE3       29.76R

$$

REGIONAL REPORTS

CITY           SKY/WX    TMP DP  RH WIND       PRES   REMARKS
SANTA BARBARA  MOSUNNY   59  56  89 W6        29.86R
SANDBERG       SUNNY     53  44  71 N16       29.97R
LAS VEGAS NV   CLOUDY    74  25  16 S7        29.76S
PHOENIX AZ     MOSUNNY   74  28  18 E8        29.82R
TIJUANA        CLOUDY    61  54  77 CALM      29.90S
ENSENADA NW      N/A     65  32  29 CALM      29.86R

$$

OFFSHORE ISLANDS

CITY           SKY/WX    TMP DP  RH WIND       PRES   REMARKS
CATALINA ARPT  FOG       54  54 100 S7        29.89R VSB 1/4
SAN NICOLAS IS SUNNY    N/A N/A N/A NW32G44   29.88R

$$

MARINE AND OFFSHORE BUOY REPORTS

STATION/POSITION SKY/WX   TEMP    WIND        PRES    VSBY  SWELL
                          AIR SEA DIR/SP/G                  HT/PER/DIR
                          (F)     (DEG/KT/KT) (MB)    (MI)  (FT/S/D)
TANNER BANKS               57 58  320/ 21/ 27 1012.2          3/200/16
S CLEMENTE BASIN           60 63  290/ 17/ 19 1011.0          3/240/16
SAN NICOLAS IS.               56                N/A           3/200/17
SO. S. ROSA ISLA           55 56  300/ 25/ 33 1011.6          3/240/16
W. S. BARBARA CH           54 52  330/ 23/ 29 1012.0          3/250/15
M. S. BARBARA CH                  320/  4/  6 1011.8R
S. MONICA BASIN            59 59   10/  8/ 10 1011.0R         5/260/ 7
S PEDRO CHANNEL               62                N/A           2/210/17
CMP PENDLETON NS              61                N/A           2/210/17
OCEANSIDE OFFSHR              61                N/A           2/190/15
TORREY PINES OTR              64                N/A           3/200/15
POINT LOMA SOUTH              65                N/A           3/210/17

$$




USA.gov is the U.S. government's official web portal to all federal, state and local government web resources and services.